Preview of NWS' New Version of Forecast
This preview is not operational and should not be used for support decisions.

Regional Weather Roundup (RWR)

Issued by National Weather Service (NWS)

                            
000
ASUS43 KLSX 170907
RWRMO 

WEATHER SUMMARY FOR MISSOURI
NATIONAL WEATHER SERVICE SPRINGFIELD MO
300 AM CST SUN FEB 17 2019

NOTE: "FAIR" INDICATES FEW OR NO CLOUDS BELOW 12,000 FEET WITH NO
       SIGNIFICANT WEATHER AND/OR OBSTRUCTIONS TO VISIBILITY.
       CURRENT SKY AND/OR WEATHER CONDITIONS ARE NOT AVAILABLE FOR
       CHILLICOTHE AND FARMINGTON.

MOZ001>031-035>038-043-044-053-054-171000-
...NORTHERN AND WESTERN MISSOURI...
  
CITY           SKY/WX    TMP DP  RH WIND       PRES   REMARKS
KANSAS CTY INT FRZ DRZL  24  23  96 NW5       29.74S WCI  18          
KANSAS C DTWN  CLOUDY    27  23  85 NW5       29.75F FOG     WCI  22  
LEE'S SUMMIT   CLOUDY    26  25  96 W3        29.73S FOG              
ST JOSEPH      CLOUDY    25  25 100 CALM      29.76F FOG              
CHILLICOTHE      N/A     28  27  96 SE3       29.77S                  
KIRKSVILLE     CLOUDY    28  28 100 E9        29.75F FOG     WCI  19  
     
$$
MOZ066>068-077>081-088>096-101>105-171000-
...SOUTHWEST MISSOURI...
  
CITY           SKY/WX    TMP DP  RH WIND       PRES   REMARKS
SPRINGFIELD    CLOUDY    31  29  92 S8        29.69F FOG     WCI  23  
JOPLIN         CLOUDY    32  32 100 W14       29.73S FOG     WCI  22  
BRANSON        FOG       32  32 100 SE3       29.71F VSB 3/4          
               
$$
MOZ032>034-039>042-045>050-055>058-069>072-171000-
...CENTRAL MISSOURI...  
  
CITY           SKY/WX    TMP DP  RH WIND       PRES   REMARKS
COLUMBIA       CLOUDY    28  25  88 SE7       29.73F WCI  21          
JEFFERSON CITY CLOUDY    29  25  85 SE6       29.76F WCI  23          
ROLLA          CLOUDY    27  24  89 CALM      29.74R FOG              
SEDALIA        LGT SNOW  26  26 100 SE7       29.73S FOG     WCI  18  
WHITEMAN AFB   CLOUDY    26  26  99 CALM      29.72  FOG              
WARRENSBURG    CLOUDY    28  27  93 CALM      29.74R                  
OSAGE BEACH    CLOUDY    28  26  92 E3        29.74F FOG              
               
$$
MOZ051-052-059>065-171000-
...EAST CENTRAL MISSOURI...
  
CITY           SKY/WX    TMP DP  RH WIND       PRES   REMARKS
ST LOUIS INTL  CLOUDY    32  27  81 SE9       29.77F WCI  24          
SPIRIT OF STL  CLOUDY    31  28  89 E8        29.72F WCI  23          
ST CHARLES     CLOUDY    31  29  92 E9        29.78F WCI  23          
                   
$$
MOZ072>076-082>087-097>100-106>115-171000-
...SOUTH CENTRAL AND SOUTHEAST MISSOURI...
  
CITY           SKY/WX    TMP DP  RH WIND       PRES   REMARKS
CAPE GIRARDEAU CLOUDY    33  29  85 CALM      29.79R FOG              
FARMINGTON     CLOUDY    29  28  96 E6        29.74F FOG     WCI  23  
POPLAR BLUFF   CLOUDY    33  33 100 NE5       29.76F FOG     WCI  29  
WEST PLAINS    CLOUDY    31  29  92 CALM      29.72F                  
                                       
$$